EN

Hourly Weather Dzikowko

Today, 28 October, Wednesday

Time Temperature Precipitation Wind Pressure Humidity
00:00 +6°C° 0 mm 7 mps 754 mmHg 79%
01:00 +6°C° 0 mm 7 mps 754 mmHg 77%
02:00 +6°C° 0 mm 7 mps 754 mmHg 76%
03:00 +6°C° 0 mm 7 mps 754 mmHg 76%
04:00 +6°C° 0 mm 7 mps 753 mmHg 76%
05:00 +7°C° 0 mm 8 mps 753 mmHg 75%
06:00 +7°C° 0 mm 8 mps 754 mmHg 74%
07:00 +7°C° 0 mm 8 mps 753 mmHg 71%
08:00 +7°C° 0 mm 8 mps 753 mmHg 73%
09:00 +7°C° 0 mm 8 mps 754 mmHg 74%
10:00 +9°C° 0 mm 8 mps 754 mmHg 76%
11:00 +9°C° 0 mm 7 mps 754 mmHg 76%
12:00 +10°C° 0 mm 7 mps 754 mmHg 75%
13:00 +11°C° 0 mm 6 mps 754 mmHg 77%
14:00 +10°C° 0 mm 6 mps 754 mmHg 79%
15:00 +10°C° 0 mm 6 mps 755 mmHg 81%
16:00 +10°C° 0 mm 6 mps 755 mmHg 83%
17:00 +10°C° 0.1 mm 6 mps 755 mmHg 85%
18:00 +9°C° 0.1 mm 6 mps 755 mmHg 87%
19:00 +9°C° 0.1 mm 6 mps 755 mmHg 90%
20:00 +9°C° 0 mm 6 mps 755 mmHg 90%
21:00 +9°C° 0 mm 5 mps 755 mmHg 90%
22:00 +9°C° 0 mm 5 mps 755 mmHg 90%
23:00 +8°C° 0 mm 5 mps 755 mmHg 91%

Tomorrow, 29 October, Thursday

Time Temperature Precipitation Wind Pressure Humidity
00:00 +8°C° 0 mm 5 mps 755 mmHg 91%
01:00 +7°C° 0 mm 5 mps 755 mmHg 92%
02:00 +7°C° 0 mm 5 mps 754 mmHg 91%
03:00 +7°C° 0 mm 6 mps 754 mmHg 89%
04:00 +7°C° 0 mm 6 mps 754 mmHg 88%
05:00 +8°C° 0.2 mm 6 mps 753 mmHg 88%
06:00 +8°C° 0.2 mm 7 mps 753 mmHg 88%
07:00 +8°C° 0.2 mm 7 mps 753 mmHg 89%
08:00 +9°C° 0.5 mm 7 mps 753 mmHg 87%
09:00 +9°C° 0.5 mm 7 mps 753 mmHg 86%
10:00 +9°C° 0.5 mm 7 mps 753 mmHg 84%
11:00 +9°C° 0.1 mm 8 mps 753 mmHg 80%
12:00 +10°C° 0.1 mm 8 mps 753 mmHg 76%
13:00 +10°C° 0.1 mm 9 mps 753 mmHg 72%
14:00 +8°C° 0.6 mm 9 mps 754 mmHg 77%
15:00 +8°C° 0.6 mm 9 mps 754 mmHg 82%
16:00 +7°C° 0.6 mm 10 mps 755 mmHg 86%
17:00 +7°C° 1.1 mm 10 mps 755 mmHg 84%
18:00 +8°C° 1.1 mm 10 mps 756 mmHg 82%
19:00 +8°C° 1.1 mm 10 mps 756 mmHg 80%
20:00 +8°C° 0.3 mm 9 mps 756 mmHg 81%
21:00 +7°C° 0.3 mm 9 mps 757 mmHg 82%
22:00 +7°C° 0.3 mm 8 mps 757 mmHg 83%
23:00 +7°C° 0 mm 8 mps 758 mmHg 86%

Day after tomorrow, 30 October, Friday

Time Temperature Precipitation Wind Pressure Humidity
00:00 +8°C° 0 mm 7 mps 758 mmHg 88%
01:00 +6°C° 0 mm 7 mps 759 mmHg 90%
02:00 +7°C° 0 mm 6 mps 759 mmHg 90%
03:00 +5°C° 0 mm 6 mps 759 mmHg 91%
04:00 +6°C° 0 mm 5 mps 759 mmHg 91%
05:00 +6°C° 0 mm 5 mps 759 mmHg 91%
06:00 +6°C° 0 mm 5 mps 759 mmHg 91%
07:00 +6°C° 0 mm 5 mps 759 mmHg 90%
08:00 +6°C° 0.7 mm 5 mps 759 mmHg 91%
09:00 +6°C° 0.7 mm 5 mps 758 mmHg 92%
10:00 +7°C° 0.7 mm 5 mps 758 mmHg 93%
11:00 +7°C° 0.9 mm 5 mps 758 mmHg 94%
12:00 +7°C° 0.9 mm 5 mps 758 mmHg 94%
13:00 +8°C° 0.9 mm 5 mps 758 mmHg 95%
14:00 +8°C° 1.3 mm 4 mps 758 mmHg 96%
15:00 +10°C° 1.3 mm 4 mps 758 mmHg 97%
16:00 +11°C° 1.3 mm 3 mps 758 mmHg 98%
17:00 +11°C° 0.9 mm 4 mps 758 mmHg 97%
18:00 +12°C° 0.9 mm 4 mps 758 mmHg 97%
19:00 +12°C° 0.9 mm 5 mps 759 mmHg 97%
20:00 +12°C° 0.3 mm 5 mps 759 mmHg 97%
21:00 +12°C° 0.3 mm 5 mps 759 mmHg 97%
22:00 +12°C° 0.3 mm 4 mps 760 mmHg 97%
23:00 +12°C° 0.2 mm 4 mps 760 mmHg 97%

31 October, Saturday

Time Temperature Precipitation Wind Pressure Humidity
00:00 +12°C° 0.2 mm 4 mps 761 mmHg 97%
01:00 +12°C° 0.2 mm 3 mps 761 mmHg 97%
02:00 +12°C° 0 mm 3 mps 761 mmHg 97%
03:00 +12°C° 0 mm 3 mps 762 mmHg 97%
04:00 +13°C° 0 mm 2 mps 762 mmHg 97%
05:00 +13°C° 0.1 mm 2 mps 762 mmHg 97%
06:00 +13°C° 0.1 mm 2 mps 762 mmHg 97%
07:00 +13°C° 0.1 mm 2 mps 763 mmHg 97%
08:00 +13°C° 0.1 mm 2 mps 763 mmHg 97%
09:00 +13°C° 0.1 mm 2 mps 763 mmHg 97%
10:00 +14°C° 0.1 mm 2 mps 763 mmHg 96%
11:00 +14°C° 0.1 mm 2 mps 763 mmHg 96%
12:00 +14°C° 0.1 mm 2 mps 764 mmHg 96%
13:00 +14°C° 0.1 mm 2 mps 764 mmHg 96%
14:00 +14°C° 0.3 mm 2 mps 764 mmHg 96%
15:00 +14°C° 0.3 mm 2 mps 763 mmHg 96%
16:00 +14°C° 0.3 mm 2 mps 763 mmHg 97%
17:00 +13°C° 0 mm 2 mps 763 mmHg 96%
18:00 +12°C° 0 mm 3 mps 763 mmHg 96%
19:00 +12°C° 0 mm 3 mps 763 mmHg 96%
20:00 +12°C° 0 mm 4 mps 763 mmHg 95%
21:00 +12°C° 0 mm 4 mps 763 mmHg 95%
22:00 +12°C° 0 mm 4 mps 763 mmHg 94%
23:00 +12°C° 0 mm 5 mps 763 mmHg 94%

1 November, Sunday

Time Temperature Precipitation Wind Pressure Humidity
00:00 +12°C° 0 mm 5 mps 763 mmHg 94%
01:00 +12°C° 0 mm 5 mps 762 mmHg 94%
02:00 +12°C° 0 mm 5 mps 762 mmHg 93%
03:00 +11°C° 0 mm 6 mps 762 mmHg 93%
04:00 +11°C° 0 mm 6 mps 761 mmHg 93%
05:00 +10°C° 0 mm 6 mps 761 mmHg 92%
06:00 +10°C° 0 mm 7 mps 761 mmHg 92%
07:00 +10°C° 0 mm 7 mps 761 mmHg 92%
08:00 +11°C° 0 mm 7 mps 760 mmHg 89%
09:00 +11°C° 0 mm 8 mps 760 mmHg 85%
10:00 +12°C° 0 mm 9 mps 760 mmHg 82%
11:00 +12°C° 0 mm 9 mps 759 mmHg 79%
12:00 +13°C° 0 mm 9 mps 759 mmHg 77%
13:00 +13°C° 0 mm 9 mps 758 mmHg 75%
14:00 +13°C° 0 mm 8 mps 758 mmHg 76%
15:00 +13°C° 0 mm 8 mps 758 mmHg 77%
16:00 +12°C° 0 mm 8 mps 757 mmHg 78%
17:00 +12°C° 0 mm 8 mps 757 mmHg 78%
18:00 +12°C° 0 mm 7 mps 757 mmHg 79%
19:00 +12°C° 0 mm 7 mps 757 mmHg 80%
20:00 +12°C° 0 mm 7 mps 757 mmHg 81%
21:00 +14°C° 0 mm 7 mps 757 mmHg 83%
22:00 +14°C° 0 mm 7 mps 757 mmHg 85%
23:00 +14°C° 0 mm 7 mps 757 mmHg 86%

2 November, Monday

Time Temperature Precipitation Wind Pressure Humidity
00:00 +12°C° 0 mm 7 mps 757 mmHg 87%
01:00 +12°C° 0 mm 7 mps 757 mmHg 89%
02:00 +13°C° 0.3 mm 6 mps 756 mmHg 89%
03:00 +13°C° 0.3 mm 6 mps 756 mmHg 89%
04:00 +13°C° 0.3 mm 6 mps 756 mmHg 90%
05:00 +13°C° 0.1 mm 6 mps 756 mmHg 88%
06:00 +13°C° 0.1 mm 6 mps 756 mmHg 87%
07:00 +13°C° 0.1 mm 6 mps 756 mmHg 86%
08:00 +14°C° 0 mm 6 mps 756 mmHg 86%
09:00 +14°C° 0 mm 6 mps 756 mmHg 85%
10:00 +14°C° 0 mm 6 mps 756 mmHg 84%
11:00 +15°C° 0 mm 6 mps 756 mmHg 82%
12:00 +16°C° 0 mm 6 mps 757 mmHg 80%
13:00 +17°C° 0 mm 6 mps 757 mmHg 78%
14:00 +16°C° 0 mm 6 mps 757 mmHg 80%
15:00 +16°C° 0 mm 5 mps 757 mmHg 81%
16:00 +16°C° 0 mm 5 mps 757 mmHg 83%
17:00 +15°C° 0 mm 5 mps 757 mmHg 84%
18:00 +15°C° 0 mm 5 mps 757 mmHg 85%
19:00 +15°C° 0 mm 6 mps 757 mmHg 86%
20:00 +15°C° 0 mm 6 mps 757 mmHg 86%
21:00 +15°C° 0 mm 6 mps 757 mmHg 86%
22:00 +15°C° 0 mm 6 mps 757 mmHg 86%
23:00 +14°C° 0 mm 6 mps 758 mmHg 86%
Show more